Regional Weather Roundup
Issued by NWS Wakefield, VA

Home | Current Version | Previous Version | Graphics & Text | Print | Product List | Glossary On
Versions: 1 2 3 4 5 6 7 8 9 10 11 12 13 14 15 16 17 18 19 20 21 22 23 24 25 26 27
000
ASUS41 KAKQ 291915
RWRAKQ

REGIONAL WEATHER ROUNDUP
NATIONAL WEATHER SERVICE WAKEFIELD VA
300 PM EDT THU SEP 29 2016

Note: "fair" indicates few or no clouds below 12,000 feet with no
significant weather and/or obstructions to visibility. * = Denotes
station may not report precipitation (e.g., rain,snow,etc.),
thunder or fog.

VAZ042-051-052>054-056-292000-
NORTHERN VIRGINIA

CITY           SKY/WX    TMP DP  RH WIND       PRES   REMARKS
WASH NATIONAL  DRIZZLE   70  68  93 E15       30.14S FOG
DULLES         DRIZZLE   68  66  93 E13G20    30.13F FOG
FORT BELVOIR   CLOUDY    70  65  86 VRB6      30.13S
QUANTICO       CLOUDY    73  67  81 E12       30.12F
FREDERICKSBRG* LGT RAIN  72  72 100 E7        30.09F
STAFFORD*      CLOUDY    70  69  96 E8        30.15S
WARRENTON      CLOUDY    73  65  78 E9G17     30.10S
CULPEPER*      CLOUDY    73  69  87 E9        30.10F
MANASSAS*      LGT RAIN  70  70 100 E13G24    30.12F
LEESBURG*      CLOUDY    68  68 100 E8G20     30.14S FOG
WINCHESTER     LGT RAIN  68  64  88 E17G24    30.10S
FRONT ROYAL*   CLOUDY    68  64  88 SE13G30   30.07F
LURAY*         CLOUDY   N/A N/A N/A NE5       30.08F
$$

VAZ048-049-060>072-079>083-292000-
CENTRAL AND SOUTH CENTRAL VIRGINIA

CITY           SKY/WX    TMP DP  RH WIND       PRES   REMARKS
RICHMOND       CLOUDY    74  70  87 E13       30.05F
CHESTERFIELD*  CLOUDY    75  61  60 E7        30.06F
PETERSBURG*    LGT RAIN  76  73  91 E8        30.05F
HANOVER        CLOUDY    74  69  85 E8        30.09S
TAPPAHANNOCK*  CLOUDY    75  70  83 E16G22    30.10S
QUINTON*       CLOUDY    73  71  94 NE7       30.06F
CHARLOTTSVILLE LGT RAIN  76  70  82 E7        30.06F
GORDONSVILLE*  CLOUDY    73  70  88 E7        30.07F
ORANGE*          N/A     72  72 100 NE12G21   30.09F
LOUISA*        CLOUDY    79  72  78 E9G16     30.06F
BUMPASS*       CLOUDY    73  70  92 E8        30.07F
FARMVILLE*     PTSUNNY   81  70  68 E6        30.02F
CREWE*         MOCLDY    76  75  97 E6        30.04F
FORT PICKETT*  MOCLDY    78  71  78 SE5       30.04F
CHASE CITY*    FAIR      77  66  68 E7        30.01F
CLARKSVILLE*   FAIR      77  68  73 E9        30.01F
SOUTH HILL*    CLOUDY    74  70  87 CALM      30.08F
LAWRENCEVILLE* CLOUDY    76  71  84 E5        30.04S
EMPORIA*       CLOUDY    73  70  88 CALM      30.04F
$$

VAZ088>098-292000-
SOUTHEAST VIRGINIA

CITY           SKY/WX    TMP DP  RH WIND       PRES   REMARKS
NORFOLK        CLOUDY    74  71  91 E10       30.07R
VIRGINIA BEACH CLOUDY    75  70  84 NE12      30.05S
NORFOLK NAVAL  LGT RAIN  75  71  87 E13       30.09R
WEST POINT*    PTSUNNY   75  68  78 NE16G24   30.09S
SALUDA*        CLOUDY    73  70  91 E14G24    30.08S
NEWPORT NEWS   LGT RAIN  74  70  87 E10       30.07R
LANGLEY AFB    LGT RAIN  75  70  83 E16G22    30.06R
FORT EUSTIS    CLOUDY    77  70  78 E9        30.05S
WILLIAMSBURG*  CLOUDY    77  72  83 E5        30.08S
HR EXEC AP*    MOCLDY    75  72  88 E6        30.08S
FRANKLIN*      LGT RAIN  76  73  90 E8        30.03F
US460-WAKEFLD  LGT RAIN  76  71  85 E8        30.04F
$$

VAZ020-022-025-037-045-292000-
WEST CENTRAL AND SOUTHWEST VIRGINIA

CITY           SKY/WX    TMP DP  RH WIND       PRES   REMARKS
STAUNTON*      CLOUDY    72  66  82 SE6       30.09F
WAYNESBORO*    CLOUDY    71  64  79 SE5       30.08F
HOT SPRINGS VA CLOUDY    51  51 100 E6        30.11F
LYNCHBURG      MOSUNNY   76  64  66 SE9G16    30.03F
DANVILLE       PTSUNNY   78  65  63 VRB7      29.99F
SOUTH BOSTON*  CLOUDY    79  66  64 E8        30.00F
MARTINSVILLE   LGT RAIN  71  67  87 S3        30.02F
ROANOKE        CLOUDY    73  64  73 SE8       30.04F
BLACKSBURG     RAIN      66  63  90 N5        30.08F
DUBLIN*        LGT RAIN  65  62  90 SE14G21   30.06F
MARION*        MOSUNNY   73  59  61 SE6       30.04R
HILLSVILLE*    CLOUDY    66  59  78 E5        30.04F
RICHLANDS*     FOG       58  58 100 NW8G24    30.00S VSB 1/2
WISE*          LGT RAIN  57  54  88 NW7       30.04S
ABINGDON*      LGT RAIN  66  62  86 SW9       30.00R
$$

MDZ021>025-VAZ099-100-292000-
SOUTHERN MARYLAND AND THE DELMARVA PENINSULA

CITY           SKY/WX    TMP DP  RH WIND       PRES   REMARKS
PATUXENT RIVER CLOUDY    72  65  78 E18G24    30.11S
BAY BRIDGE APT CLOUDY   N/A N/A N/A MISG      30.15F
LEONARDTOWN    CLOUDY    70  64  83 E12G20    30.13F
DOVER          LGT RAIN  66  66 100 E29G40    30.18R
GEORGETOWN     HVY RAIN  66  32  28 E18G30    30.19R
EASTON         CLOUDY    70  64  83 E16G29    30.19R
CAMBRIDGE      CLOUDY    68  64  88 E15G25    30.12F
SALISBURY      RAIN      67  66  97 E24G33    30.13S FOG
OCEAN CITY     HVY RAIN N/A N/A N/A NE22G35   30.15S
WALLOPS ISLAND LGT RAIN  69  69 100 NE29G45   30.11F FOG
ACCOMACK*      DRIZZLE  N/A N/A N/A E20G32    30.09F
$$

NCZ012>017-030>032-292000-
NORTH CENTRAL AND EASTERN NORTH CAROLINA

CITY           SKY/WX    TMP DP  RH WIND       PRES   REMARKS
ROANOKE RAPIDS FAIR      77  72  83 E5        30.02F
RALEIGH        PTSUNNY   78  69  73 SE12      30.00F
ELIZABETH CITY LGT RAIN  77  73  87 NE10      30.05S
AHOSKIE*       CLOUDY    74  73  97 E3        30.03F
EDENTON*       CLOUDY    75  73  91 NE7       30.05F
CURRITUCK*     HVY RAIN  73  73 100 NE9       30.07R
KILL DEVIL HLS CLOUDY    79  75  87 NE3       30.02F
MANTEO         CLOUDY    77  71  83 E7        30.03F
CAPE HATTERAS  PTSUNNY   83  74  74 NW7       30.02S
TARBORO*       CLOUDY    78  74  88 SE6       30.03S
GOLDSBORO      PTSUNNY   76  74  95 E12       29.97F
WASHINGTON     CLOUDY    74  69  84 E10       30.02F
GREENVILLE     CLOUDY    75  72  88 SE6       30.02F
NEW BERN       MOSUNNY   78  71  79 E8        30.01F
WILMINGTON     PTSUNNY   79  71  76 E3        29.98F
$$

VAZ048-292000-
ELSEWHERE

CITY           SKY/WX    TMP DP  RH WIND       PRES   REMARKS
HARRISBURG PA  CLOUDY    62  60  93 E17G25    30.23F FOG
BALTIMORE      LGT RAIN  65  64  97 E17       30.17F VSB 3/4
ANNAPOLIS      CLOUDY    70  65  84 E15G28    30.16F
ANDREWS AFB    CLOUDY    68  65  93 E12       30.13S
PHILADELPHIA   NOT AVBL
HENDERSON NC   MOSUNNY   74  66  74 E10G16    30.01F
GREENSBORO     PTSUNNY   76  68  76 SE12      29.98F
ROCKY MOUNT    CLOUDY    76  73  91 E5        30.00F
$$

VAZ100-292000-
MARINE

STATION/POSITION TIME  TEMP    WIND        PRES    WAVE   SWELL
                       AIR SEA DIR/SP/G            HT/PER HT/PER
                 (UTC) (F)     (DEG/KT/KT) (MB)    (FT/S) (FT/S)
BRANDYWINE LGT   1848   66      80/ 33/ 38   N/A
CAPE MAY NJ      1848   66 70   70/ 13/ 25 1022.6R
LEWES DE         1848   68 70   80/ 27/ 33 1022.1R
OCEAN-CITY-INLET 1842   67 72   70/ 17/ 25 1021.3F
WACHAPREAGUE VA  1848   71 75   40/ 22/ 31 1018.8F
THOMAS POINT MD  1900   69 73   90/ 21/ 24 1022.0S
GOOSES REEF MD   1850   71     110/ 19/ 23 1020.7S
COVE POINT MD    1848   71     120/ 13/ 23 1020.6S
SOLOMONS ISLAND  1842   72 74   80/ 20/ 22   N/A
BISHOPS HEAD MD  1848   71 72   70/ 25/ 30 1019.2F
PINEY POINT MD   1848          100/ 20/ 26   N/A
POTOMAC MD       1850   73      90/ 19/ 25 1018.3S
CAMBRIDGE MD     1848   70 72   80/ 22/ 28 1019.6R
LEWISETTA VA     1842   73 73  100/ 23/ 27 1018.7F
RAPPAHANNOCK LGT 1848           60/ 23/ 25 1018.9F
STINGRAY PT      1850   74      20/ 25/ 29 1018.5F
YORK RVR RNG VA  1842   74      90/ 20/ 25 1017.4S
YORKTOWN VA      1842   74 76   70/ 20/ 25 1017.9S
JAMESTOWN VA     1850   75      80/ 10/ 16   N/A
DOMINION TERM VA 1842   76      80/  9/ 13 1018.2R
KIPTOPEKE VA     1848      75   70/ 12/ 19   N/A
CHES BAY BRIDGE  1842   74 76   40/ 14/ 17 1017.8R
CAPE HENRY VA    1842   74      60/ 20/ 22   N/A
WILLOUBY STN VA  1842   74      60/ 15/ 17   N/A
CAPE HENRY BUOY  1842      76                N/A     5/ 8
1ST LANDING BUOY 1850   74      90/ 17/ 21 1017.5S
CAPE CHARLES BUO 1826      76                N/A     5/ 8   2/11
OFFSHORE WE BUOY 1851      75                N/A     7/ 7   2/11
64NM E OF VA BCH 1850   76 75  340/ 10/ 10 1016.8F   6/ 8   5/ 8
DUCK PIER NC     1842   75 77   40/  8/ 10 1016.6F
44056 DUCK FRF   1841      77                N/A     4/ 8   2/11
OREGON INLET NC  1842   77 77   40/  7/ 10 1016.6F
HATTERAS NC      1842   79 79  330/  5/  6 1016.4F
DIAMOND SHLS NC  1850   81 84  310/  4/  4 1016.3F   4/ 7   3/ 7
CAPE LOOKOUT NC  1800   72      20/ 11/ 13 1017.2R
$$




USA.gov is the U.S. government's official web portal to all federal, state and local government web resources and services.